This demonstration page uses our WeatherBlox Daily Observations layout. Learn more.

Left ArrowRight Arrow

30.21309, -93.2044

Hourly Observations for October 14, 2015

Temp ( °F °C ) Dew Point ( °F °C ) Humidity (%) Winds ( mph kmh ) Pressure ( in mb ) Visibility ( mi km ) Precip ( " mm )
12:15 am 00:15 Clear 61 15.9 53 11.7 76 76 Calm 29.97 1015 10 16 0.00 0.00
12:35 am 00:35 Clear 60 15.8 53 11.4 75 75 Calm 30.00 1016 10 16 0.00 0.00
12:55 am 00:55 Clear 60 15.7 52 11.3 75 75 Calm 29.97 1015 10 16 0.00 0.00
1:15 am 01:15 Clear 59 15.1 51 10.8 76 76 Calm 30.00 1016 10 16 0.00 0.00
1:35 am 01:35 Clear 60 15.7 52 10.9 73 73 Calm 30.00 1016 10 16 0.00 0.00
1:55 am 01:55 Clear 59 15 53 11.5 80 80 Calm 30.00 1016 10 16 0.00 0.00
2:15 am 02:15 Clear 60 15.4 53 11.5 78 78 Calm 29.97 1015 10 16 0.00 0.00
2:35 am 02:35 Clear 59 15.1 53 11.6 80 80 Calm 29.97 1015 10 16 0.00 0.00
2:55 am 02:55 Clear 58 14.6 53 11.5 82 82 Calm 29.97 1015 10 16 0.00 0.00
3:15 am 03:15 Clear 58 14.5 53 11.6 83 83 Calm 29.97 1015 10 16 0.00 0.00
3:35 am 03:35 Clear 58 14.3 53 11.7 85 85 NW 3 6 29.97 1015 10 16 0.00 0.00
3:55 am 03:55 Clear 57 14.1 51 10.7 80 80 Calm 29.97 1015 10 16 0.00 0.00
4:15 am 04:15 Clear 60 15.4 51 10.5 73 73 Calm 29.97 1015 10 16 0.00 0.00
4:35 am 04:35 Clear 59 15.1 50 10.1 72 72 Calm 29.97 1015 10 16 0.00 0.00
4:55 am 04:55 Clear 59 15.1 50 10.1 72 72 Calm 30.00 1016 10 16 0.00 0.00
5:15 am 05:15 Clear 58 14.4 50 10 75 75 Calm 30.00 1016 10 16 0.00 0.00
6:00 am 06:00 Mostly Clear 55 13 50 10 82 82 Calm 30.00 1016 10 16 0.00 0.00
6:55 am 06:55 Mostly Clear 55 13 48 9 77 77 Calm 30.03 1017 10 16 0.00 0.00
7:55 am 07:55 Mostly Sunny 55 13 48 9 77 77 Calm 30.03 1017 10 16 0.00 0.00
8:55 am 08:55 Mostly Sunny 66 19 50 10 56 56 Calm 30.06 1018 10 16 0.00 0.00
9:50 am 09:50 Mostly Sunny 72 22 54 12 53 53 Calm 30.09 1019 10 16 0.00 0.00
10:55 am 10:55 Mostly Sunny 81 27 52 11 37 37 E 6 9 30.09 1019 10 16 0.00 0.00
11:50 am 11:50 Mostly Sunny 84 29 48 9 29 29 E 8 13 30.09 1019 10 16 0.00 0.00
12:50 pm 12:50 Mostly Sunny 88 31 46 8 24 24 ENE 5 7 30.09 1019 10 16 0.00 0.00
1:50 pm 13:50 Mostly Sunny 88 31 46 8 24 24 ENE 6 9 30.06 1018 10 16 0.00 0.00
2:50 pm 14:50 Mostly Sunny 90 32 45 7 21 21 SE 3 6 30.03 1017 10 16 0.00 0.00
3:50 pm 15:50 Mostly Sunny 90 32 43 6 20 20 E 5 7 30.03 1017 10 16 0.00 0.00
4:50 pm 16:50 Mostly Sunny 88 31 45 7 22 22 Calm 30.03 1017 10 16 0.00 0.00
5:50 pm 17:50 Mostly Sunny 88 31 46 8 24 24 Calm 30.03 1017 10 16 0.00 0.00
6:50 pm 18:50 Mostly Clear 77 25 52 11 42 42 Calm 30.03 1017 10 16 0.00 0.00
7:50 pm 19:50 Mostly Clear 75 24 54 12 47 47 SSW 7 11 30.03 1017 10 16 0.00 0.00
8:50 pm 20:50 Mostly Clear 68 20 57 14 69 69 Calm 30.06 1018 10 16 0.00 0.00
9:50 pm 21:50 Mostly Clear 64 18 57 14 78 78 Calm 30.06 1018 10 16 0.00 0.00
10:15 pm 22:15 Clear 64 17.8 58 14.7 82 82 Calm 30.06 1018 10 16 0.00 0.00
10:35 pm 22:35 Clear 62 16.9 58 14.7 87 87 Calm 30.06 1018 10 16 0.00 0.00
10:55 pm 22:55 Clear 63 17.3 58 14.7 85 85 Calm 30.06 1018 10 16 0.00 0.00
11:15 pm 23:15 Clear 63 17 59 15 88 88 Calm 30.06 1018 10 16 0.00 0.00
11:35 pm 23:35 Clear 61 16.2 58 14.5 90 90 Calm 30.06 1018 10 16 0.00 0.00
11:55 pm 23:55 Clear 61 16 59 14.9 93 93 Calm 30.06 1018 10 16 0.00 0.00

Powered by AerisWeather